UBT70Z KJFK-EGKK

Flight info

Callsign UBT70Z
Flight time N/A
Altitude 37000
Route BETTE DCT ACK DCT BRADD N349A BUDAR/M085F390 DCT 5030N05000W 5230N04000W 5330N03000W 5330N02000W DCT TOBOR DCT RILED/N0487F390 DCT NORLA DCT FONZU DCT ELRIP DCT OTMET
Aircraft B789/H-SDE1E2E3FGHIJ2J3J4J5M1RWXY/LB1D1

Departure

Time 2026-05-08 12:14
Airport John F. Kennedy International Airport (KJFK)

Arrival

Time N/A
Airport London Gatwick Airport (EGKK)
Time Latitude Longitude Altitude Speed Heading
2026-05-08 11:52 40.65116 -73.78360 29 ft 0 kts 156°
2026-05-08 12:01 40.65123 -73.78364 28 ft 4 kts 156°
2026-05-08 12:01 40.65147 -73.78378 26 ft 3 kts 156°
2026-05-08 12:01 40.65166 -73.78391 27 ft 4 kts 137°
2026-05-08 12:02 40.65176 -73.78411 26 ft 4 kts 90°
2026-05-08 12:02 40.65172 -73.78430 25 ft 4 kts 37°
2026-05-08 12:02 40.65150 -73.78445 25 ft 4 kts 23°
2026-05-08 12:02 40.65125 -73.78458 27 ft 4 kts 21°
2026-05-08 12:03 40.65099 -73.78471 27 ft 4 kts 18°
2026-05-08 12:03 40.65086 -73.78477 28 ft 0 kts 17°
2026-05-08 12:05 40.65088 -73.78476 28 ft 1 kts 17°
2026-05-08 12:06 40.65098 -73.78472 27 ft 3 kts 17°
2026-05-08 12:06 40.65132 -73.78454 27 ft 8 kts 22°
2026-05-08 12:06 40.65188 -73.78424 27 ft 9 kts 22°
2026-05-08 12:06 40.65245 -73.78387 29 ft 8 kts 38°
2026-05-08 12:07 40.65259 -73.78348 31 ft 2 kts 95°
2026-05-08 12:07 40.65243 -73.78311 31 ft 10 kts 125°
2026-05-08 12:07 40.65180 -73.78190 29 ft 20 kts 121°
2026-05-08 12:07 40.65099 -73.78012 28 ft 25 kts 121°
2026-05-08 12:08 40.65002 -73.77799 28 ft 29 kts 121°
2026-05-08 12:08 40.64893 -73.77559 31 ft 32 kts 121°
2026-05-08 12:08 40.64783 -73.77315 29 ft 30 kts 120°
2026-05-08 12:08 40.64662 -73.77103 28 ft 27 kts 156°
2026-05-08 12:09 40.64480 -73.77091 27 ft 26 kts 184°
2026-05-08 12:09 40.64354 -73.77167 28 ft 19 kts 211°
2026-05-08 12:09 40.64243 -73.77252 29 ft 18 kts 210°
2026-05-08 12:09 40.64137 -73.77333 29 ft 18 kts 210°
2026-05-08 12:10 40.64039 -73.77378 27 ft 11 kts 160°
2026-05-08 12:10 40.64002 -73.77320 27 ft 11 kts 122°
2026-05-08 12:10 40.63942 -73.77207 26 ft 18 kts 127°
2026-05-08 12:10 40.63853 -73.77057 31 ft 23 kts 128°
2026-05-08 12:11 40.63776 -73.76933 31 ft 12 kts 144°
2026-05-08 12:11 40.63695 -73.76918 31 ft 13 kts 180°
2026-05-08 12:11 40.63590 -73.76917 31 ft 17 kts 180°
2026-05-08 12:11 40.63450 -73.76925 28 ft 23 kts 184°
2026-05-08 12:12 40.63272 -73.76941 27 ft 27 kts 184°
2026-05-08 12:12 40.63098 -73.76974 26 ft 24 kts 200°
2026-05-08 12:12 40.62965 -73.77073 27 ft 18 kts 211°
2026-05-08 12:12 40.62861 -73.77154 29 ft 17 kts 211°
2026-05-08 12:13 40.62815 -73.77211 29 ft 3 kts 265°
2026-05-08 12:13 40.62821 -73.77226 29 ft 3 kts 301°
2026-05-08 12:13 40.62860 -73.77312 31 ft 30 kts 301°
2026-05-08 12:13 40.63068 -73.77770 35 ft 88 kts 301°
2026-05-08 12:14 40.63478 -73.78674 31 ft 139 kts 301°
2026-05-08 12:14 40.64033 -73.79910 256 ft 163 kts 302°
2026-05-08 12:14 40.64612 -73.81219 701 ft 169 kts 295°
2026-05-08 12:14 40.64637 -73.82745 1171 ft 174 kts 253°
2026-05-08 12:15 40.63880 -73.84036 1571 ft 186 kts 221°
2026-05-08 12:15 40.62843 -73.85126 1898 ft 198 kts 226°
2026-05-08 12:15 40.61799 -73.86398 2227 ft 210 kts 228°
2026-05-08 12:15 40.60588 -73.87528 2637 ft 221 kts 209°
2026-05-08 12:16 40.59060 -73.87909 3129 ft 230 kts 183°
2026-05-08 12:16 40.57447 -73.87434 3388 ft 248 kts 159°
2026-05-08 12:16 40.55969 -73.86135 3693 ft 264 kts 140°
2026-05-08 12:16 40.54550 -73.84471 4100 ft 279 kts 138°
2026-05-08 12:17 40.53128 -73.82736 4913 ft 280 kts 137°
2026-05-08 12:17 40.51705 -73.80966 5611 ft 283 kts 136°
2026-05-08 12:17 40.50618 -73.78793 6188 ft 290 kts 108°
2026-05-08 12:17 40.50387 -73.76191 6828 ft 288 kts 81°
2026-05-08 12:18 40.50820 -73.73630 7486 ft 288 kts 70°
2026-05-08 12:18 40.51313 -73.71059 8124 ft 294 kts 74°
2026-05-08 12:18 40.51564 -73.68364 8752 ft 301 kts 82°
2026-05-08 12:18 40.51660 -73.65586 9392 ft 306 kts 83°
2026-05-08 12:19 40.51814 -73.62784 10013 ft 310 kts 81°
2026-05-08 12:19 40.52041 -73.59922 10406 ft 322 kts 80°
2026-05-08 12:19 40.52270 -73.56926 10686 ft 338 kts 81°
2026-05-08 12:19 40.52476 -73.53777 10974 ft 354 kts 82°
2026-05-08 12:20 40.52685 -73.50488 11258 ft 369 kts 82°
2026-05-08 12:20 40.52917 -73.47063 11537 ft 384 kts 82°
2026-05-08 12:20 40.53164 -73.43499 11834 ft 398 kts 82°
2026-05-08 12:20 40.53410 -73.39841 12355 ft 405 kts 83°
2026-05-08 12:21 40.53652 -73.36133 12933 ft 410 kts 83°
2026-05-08 12:21 40.53900 -73.32373 13493 ft 416 kts 83°
2026-05-08 12:21 40.54154 -73.28559 14014 ft 421 kts 83°
2026-05-08 12:21 40.54409 -73.24697 14499 ft 427 kts 83°
2026-05-08 12:22 40.54664 -73.20790 15020 ft 431 kts 83°
2026-05-08 12:22 40.54919 -73.16851 15511 ft 435 kts 83°
2026-05-08 12:22 40.55174 -73.12911 15987 ft 440 kts 83°
2026-05-08 12:22 40.55434 -73.08882 16463 ft 445 kts 83°
2026-05-08 12:23 40.55694 -73.04806 16936 ft 449 kts 83°
2026-05-08 12:23 40.56066 -73.00719 17339 ft 452 kts 74°
2026-05-08 12:23 40.57058 -72.96817 17791 ft 452 kts 66°
2026-05-08 12:23 40.58068 -72.92975 18228 ft 457 kts 68°
2026-05-08 12:24 40.59064 -72.88976 18612 ft 462 kts 69°
2026-05-08 12:24 40.60075 -72.84950 19027 ft 465 kts 68°
2026-05-08 12:24 40.61121 -72.80910 19432 ft 469 kts 68°
2026-05-08 12:24 40.61837 -72.78156 19691 ft 471 kts 68°
2026-05-08 12:25 40.63225 -72.72709 20219 ft 476 kts 68°
2026-05-08 12:25 40.63930 -72.69909 20475 ft 479 kts 68°
2026-05-08 12:25 40.64974 -72.65788 20861 ft 482 kts 68°
2026-05-08 12:25 40.66044 -72.61591 21274 ft 486 kts 68°
2026-05-08 12:26 40.67118 -72.57366 21691 ft 488 kts 68°
2026-05-08 12:26 40.68192 -72.53111 22055 ft 491 kts 68°
2026-05-08 12:26 40.69272 -72.48821 22419 ft 495 kts 68°
2026-05-08 12:26 40.70360 -72.44503 22776 ft 498 kts 68°
2026-05-08 12:27 40.71455 -72.40158 23137 ft 501 kts 68°
2026-05-08 12:27 40.72554 -72.35779 23498 ft 505 kts 68°
2026-05-08 12:27 40.73658 -72.31371 23786 ft 508 kts 68°
2026-05-08 12:27 40.74766 -72.26938 24038 ft 511 kts 68°
2026-05-08 12:28 40.75884 -72.22468 24265 ft 516 kts 68°
2026-05-08 12:28 40.77009 -72.17953 24482 ft 521 kts 68°
2026-05-08 12:28 40.78141 -72.13399 24753 ft 524 kts 69°
2026-05-08 12:28 40.79276 -72.08820 25076 ft 527 kts 68°
2026-05-08 12:29 40.80417 -72.04218 25384 ft 529 kts 68°
2026-05-08 12:29 40.81563 -71.99585 25650 ft 532 kts 68°
2026-05-08 12:29 40.82713 -71.94926 25904 ft 536 kts 68°
2026-05-08 12:29 40.83869 -71.90232 26150 ft 539 kts 69°
2026-05-08 12:30 40.85031 -71.85503 26366 ft 543 kts 69°
2026-05-08 12:30 40.86199 -71.80742 26625 ft 547 kts 69°
2026-05-08 12:30 40.87372 -71.75948 26894 ft 550 kts 69°
2026-05-08 12:30 40.88551 -71.71125 27154 ft 553 kts 69°
2026-05-08 12:31 40.89735 -71.66268 27421 ft 557 kts 69°
2026-05-08 12:31 40.90924 -71.61383 27687 ft 560 kts 69°
2026-05-08 12:31 40.92118 -71.56464 27996 ft 564 kts 69°
2026-05-08 12:31 40.93317 -71.51514 28230 ft 568 kts 69°
2026-05-08 12:32 40.94524 -71.46520 28487 ft 571 kts 69°
2026-05-08 12:32 40.95733 -71.41506 28760 ft 574 kts 69°
2026-05-08 12:32 40.96950 -71.36451 29027 ft 578 kts 69°
2026-05-08 12:32 40.98171 -71.31370 29292 ft 581 kts 69°
2026-05-08 12:33 40.99396 -71.26259 29564 ft 585 kts 69°
2026-05-08 12:33 41.00625 -71.21114 29824 ft 588 kts 69°
2026-05-08 12:33 41.01861 -71.15936 30068 ft 591 kts 69°
2026-05-08 12:33 41.03101 -71.10726 30332 ft 594 kts 69°
2026-05-08 12:34 41.03875 -71.07465 30566 ft 594 kts 69°
2026-05-08 12:34 41.05112 -71.02247 30946 ft 594 kts 69°
2026-05-08 12:34 41.06350 -70.97018 31274 ft 595 kts 70°
2026-05-08 12:34 41.07586 -70.91783 31626 ft 595 kts 70°
2026-05-08 12:35 41.08801 -70.86623 32002 ft 594 kts 70°
2026-05-08 12:35 41.10026 -70.81405 32454 ft 592 kts 70°
2026-05-08 12:35 41.11246 -70.76205 32928 ft 590 kts 70°
2026-05-08 12:35 41.12458 -70.71026 33419 ft 587 kts 71°
2026-05-08 12:36 41.13664 -70.65858 33910 ft 585 kts 71°
2026-05-08 12:36 41.14865 -70.60701 34141 ft 587 kts 71°
2026-05-08 12:36 41.16069 -70.55519 34359 ft 588 kts 71°
2026-05-08 12:36 41.17274 -70.50324 34553 ft 589 kts 71°
2026-05-08 12:37 41.18477 -70.45121 34772 ft 591 kts 71°
2026-05-08 12:37 41.19681 -70.39900 34990 ft 591 kts 71°
2026-05-08 12:37 41.20880 -70.34689 35217 ft 590 kts 71°
2026-05-08 12:37 41.22078 -70.29475 35438 ft 589 kts 71°
2026-05-08 12:38 41.23270 -70.24271 35667 ft 589 kts 72°
2026-05-08 12:38 41.24460 -70.19065 35882 ft 589 kts 72°
2026-05-08 12:38 41.25648 -70.13858 36125 ft 590 kts 72°
2026-05-08 12:38 41.26839 -70.08635 36380 ft 590 kts 71°
2026-05-08 12:39 41.28417 -70.03633 36673 ft 584 kts 59°
2026-05-08 12:39 41.30568 -69.99084 36910 ft 579 kts 49°
2026-05-08 12:39 41.35821 -69.90974 36909 ft 577 kts 45°
2026-05-08 12:40 41.40968 -69.82856 36908 ft 572 kts 45°
2026-05-08 12:40 41.46205 -69.74826 36906 ft 573 kts 45°
2026-05-08 12:41 41.51358 -69.66736 36905 ft 572 kts 45°
2026-05-08 12:41 41.56540 -69.58682 36904 ft 572 kts 45°
2026-05-08 12:42 41.61703 -69.50581 36903 ft 572 kts 46°
2026-05-08 12:42 41.66842 -69.42520 36908 ft 575 kts 46°
2026-05-08 12:43 41.72022 -69.34368 36912 ft 575 kts 46°
2026-05-08 12:43 41.77188 -69.26208 36908 ft 573 kts 46°
2026-05-08 12:44 41.82333 -69.18072 36882 ft 572 kts 46°
2026-05-08 12:44 41.86642 -69.11230 36914 ft 575 kts 46°
2026-05-08 12:45 41.92633 -69.01700 36911 ft 573 kts 46°
2026-05-08 12:45 41.97758 -68.93521 36908 ft 572 kts 46°
2026-05-08 12:46 42.02848 -68.85375 36857 ft 565 kts 47°
2026-05-08 12:46 42.07885 -68.77296 36903 ft 563 kts 47°
2026-05-08 12:47 42.12900 -68.69228 36896 ft 562 kts 47°
2026-05-08 12:47 42.17918 -68.61133 36896 ft 563 kts 47°
2026-05-08 12:48 42.22934 -68.53018 36902 ft 562 kts 47°
2026-05-08 12:48 42.27932 -68.44912 36895 ft 563 kts 47°
2026-05-08 12:49 42.32941 -68.36766 36895 ft 564 kts 48°
2026-05-08 12:49 42.37940 -68.28610 36890 ft 561 kts 48°
2026-05-08 12:50 42.42907 -68.20490 36892 ft 560 kts 48°
2026-05-08 12:50 42.47874 -68.12344 36932 ft 563 kts 49°
2026-05-08 12:51 42.55310 -68.00107 36884 ft 558 kts 49°
2026-05-08 12:52 42.60245 -67.91959 36875 ft 559 kts 49°
2026-05-08 12:52 42.67615 -67.79748 36872 ft 560 kts 49°
2026-05-08 12:53 42.72547 -67.71547 36877 ft 561 kts 49°
2026-05-08 12:53 42.77480 -67.63324 36874 ft 561 kts 49°
2026-05-08 12:54 42.82385 -67.55121 36863 ft 557 kts 49°
2026-05-08 12:54 42.87273 -67.46928 36861 ft 557 kts 49°
2026-05-08 12:55 42.92152 -67.38724 36845 ft 557 kts 50°
2026-05-08 12:55 42.97049 -67.30469 36867 ft 562 kts 50°
2026-05-08 12:56 43.01965 -67.22157 36859 ft 562 kts 50°
2026-05-08 12:56 43.06862 -67.13855 36852 ft 561 kts 50°
2026-05-08 12:57 43.11744 -67.05553 36851 ft 559 kts 50°
2026-05-08 12:57 43.16609 -66.97251 36842 ft 558 kts 50°
2026-05-08 12:58 43.21402 -66.88859 36848 ft 560 kts 51°
2026-05-08 12:58 43.26225 -66.80474 36843 ft 560 kts 51°
2026-05-08 12:59 43.31029 -66.72066 36832 ft 560 kts 51°
2026-05-08 12:59 43.35829 -66.63645 36811 ft 560 kts 51°
2026-05-08 13:00 43.40639 -66.55189 36824 ft 564 kts 52°
2026-05-08 13:00 43.45431 -66.46731 36820 ft 565 kts 52°
2026-05-08 13:01 43.50259 -66.38196 36817 ft 564 kts 52°
2026-05-08 13:01 43.55056 -66.29680 36809 ft 561 kts 52°
2026-05-08 13:02 43.59840 -66.21170 36795 ft 562 kts 52°
2026-05-08 13:02 43.64622 -66.12634 36795 ft 562 kts 52°
2026-05-08 13:03 43.69370 -66.04137 36798 ft 562 kts 53°
2026-05-08 13:03 43.74146 -65.95564 36793 ft 563 kts 53°
2026-05-08 13:04 43.78911 -65.86985 36788 ft 562 kts 53°
2026-05-08 13:04 43.83666 -65.78399 36782 ft 564 kts 53°
2026-05-08 13:05 43.88443 -65.69749 36776 ft 566 kts 53°
2026-05-08 13:05 43.93215 -65.61082 36769 ft 565 kts 54°
2026-05-08 13:06 43.97971 -65.52415 36754 ft 564 kts 54°
2026-05-08 13:06 44.02715 -65.43747 36750 ft 563 kts 54°
2026-05-08 13:07 44.07451 -65.35067 36754 ft 563 kts 54°
2026-05-08 13:07 44.12180 -65.26375 36749 ft 563 kts 54°
2026-05-08 13:08 44.16902 -65.17668 36747 ft 564 kts 54°
2026-05-08 13:08 44.21621 -65.08942 36752 ft 564 kts 54°
2026-05-08 13:09 44.26335 -65.00197 36742 ft 564 kts 55°
2026-05-08 13:09 44.31056 -64.91415 36735 ft 566 kts 55°
2026-05-08 13:10 44.35778 -64.82605 36736 ft 566 kts 55°
2026-05-08 13:10 44.40455 -64.73850 36722 ft 564 kts 55°
2026-05-08 13:11 44.45102 -64.65125 36714 ft 563 kts 55°
2026-05-08 13:11 44.49783 -64.56309 36711 ft 564 kts 56°
2026-05-08 13:12 44.54455 -64.47486 36707 ft 563 kts 56°
2026-05-08 13:12 44.58354 -64.40098 36706 ft 563 kts 56°
2026-05-08 13:13 44.63007 -64.31261 36702 ft 563 kts 56°
2026-05-08 13:13 44.67648 -64.22418 36701 ft 562 kts 56°
2026-05-08 13:14 44.72244 -64.13633 36703 ft 562 kts 56°
2026-05-08 13:14 44.76871 -64.04763 36708 ft 563 kts 57°
2026-05-08 13:15 44.81486 -63.95889 36705 ft 561 kts 57°
2026-05-08 13:15 44.86076 -63.87033 36702 ft 561 kts 57°
2026-05-08 13:16 44.90684 -63.78118 36704 ft 561 kts 57°
2026-05-08 13:16 44.95274 -63.69209 36707 ft 560 kts 57°
2026-05-08 13:17 44.99845 -63.60307 36707 ft 559 kts 57°
2026-05-08 13:17 45.04400 -63.51411 36699 ft 558 kts 57°
2026-05-08 13:18 45.08952 -63.42492 36696 ft 559 kts 58°
2026-05-08 13:18 45.13497 -63.33561 36699 ft 559 kts 58°
2026-05-08 13:19 45.18034 -63.24615 36699 ft 561 kts 58°
2026-05-08 13:19 45.22581 -63.15625 36701 ft 561 kts 58°
2026-05-08 13:20 45.27095 -63.06669 36699 ft 562 kts 58°
2026-05-08 13:20 45.31659 -62.97586 36697 ft 561 kts 58°
2026-05-08 13:21 45.36155 -62.88610 36687 ft 561 kts 59°
2026-05-08 13:21 45.39938 -62.81034 36686 ft 561 kts 59°
2026-05-08 13:22 45.45182 -62.70501 36687 ft 561 kts 59°
2026-05-08 13:22 45.49686 -62.61422 36692 ft 561 kts 59°
2026-05-08 13:23 45.54184 -62.52328 36692 ft 561 kts 59°
2026-05-08 13:23 45.58672 -62.43223 36645 ft 561 kts 60°
2026-05-08 13:24 45.63166 -62.34075 36688 ft 564 kts 60°
2026-05-08 13:24 45.67668 -62.24884 36695 ft 565 kts 60°
2026-05-08 13:25 45.72161 -62.15681 36689 ft 564 kts 60°
2026-05-08 13:25 45.76641 -62.06475 36692 ft 564 kts 60°
2026-05-08 13:26 45.81117 -61.97247 36695 ft 564 kts 60°
2026-05-08 13:26 45.85555 -61.88067 36697 ft 564 kts 61°
2026-05-08 13:27 45.90010 -61.78820 36702 ft 563 kts 61°
2026-05-08 13:27 45.94457 -61.69561 36698 ft 563 kts 61°
2026-05-08 13:28 45.98903 -61.60272 36694 ft 565 kts 61°
2026-05-08 13:28 46.03355 -61.50945 36633 ft 565 kts 62°
2026-05-08 13:29 46.07792 -61.41611 36701 ft 566 kts 62°
2026-05-08 13:29 46.12234 -61.32243 36677 ft 566 kts 62°
2026-05-08 13:30 46.16655 -61.22884 36670 ft 564 kts 62°
2026-05-08 13:30 46.21063 -61.13520 36662 ft 563 kts 62°
2026-05-08 13:31 46.25460 -61.04150 36663 ft 564 kts 62°
2026-05-08 13:31 46.29855 -60.94753 36659 ft 564 kts 62°
2026-05-08 13:32 46.34243 -60.85339 36659 ft 564 kts 62°
2026-05-08 13:32 46.38623 -60.75910 36662 ft 565 kts 62°
2026-05-08 13:33 46.42996 -60.66466 36670 ft 564 kts 62°
2026-05-08 13:33 46.47363 -60.56999 36666 ft 564 kts 63°
2026-05-08 13:34 46.51722 -60.47522 36684 ft 566 kts 63°
2026-05-08 13:34 46.56084 -60.38003 36689 ft 566 kts 63°
2026-05-08 13:35 46.60413 -60.28526 36692 ft 566 kts 63°
2026-05-08 13:35 46.64779 -60.18931 36689 ft 565 kts 63°
2026-05-08 13:36 46.69087 -60.09436 36694 ft 566 kts 63°
2026-05-08 13:36 46.73408 -59.99874 36697 ft 566 kts 63°
2026-05-08 13:37 46.77729 -59.90285 36683 ft 566 kts 63°
2026-05-08 13:37 46.82051 -59.80658 36702 ft 567 kts 63°
2026-05-08 13:38 46.86368 -59.71008 36699 ft 567 kts 63°
2026-05-08 13:38 46.90669 -59.61363 36696 ft 566 kts 63°
2026-05-08 13:39 46.94949 -59.51726 36692 ft 564 kts 64°
2026-05-08 13:39 46.99217 -59.42087 36694 ft 564 kts 64°
2026-05-08 13:40 47.03481 -59.32419 36691 ft 566 kts 64°
2026-05-08 13:40 47.07750 -59.22712 36701 ft 567 kts 64°
2026-05-08 13:41 47.12010 -59.12986 36696 ft 566 kts 64°
2026-05-08 13:41 47.16262 -59.03247 36696 ft 566 kts 64°
2026-05-08 13:42 47.20505 -58.93492 36677 ft 566 kts 64°
2026-05-08 13:42 47.24737 -58.83727 36677 ft 566 kts 64°
2026-05-08 13:43 47.28961 -58.73948 36680 ft 566 kts 64°
2026-05-08 13:43 47.33182 -58.64141 36681 ft 566 kts 64°
2026-05-08 13:44 47.37359 -58.54397 36675 ft 566 kts 64°
2026-05-08 13:44 47.41566 -58.44551 36670 ft 567 kts 64°
2026-05-08 13:45 47.45767 -58.34687 36671 ft 567 kts 64°
2026-05-08 13:45 47.49956 -58.24809 36667 ft 566 kts 64°
2026-05-08 13:46 47.54123 -58.14957 36659 ft 564 kts 64°
2026-05-08 13:46 47.58270 -58.05105 36659 ft 564 kts 64°
2026-05-08 13:47 47.62410 -57.95242 36646 ft 564 kts 64°
2026-05-08 13:47 47.66536 -57.85374 36665 ft 562 kts 64°
2026-05-08 13:48 47.70648 -57.75501 36660 ft 563 kts 64°
2026-05-08 13:48 47.74760 -57.65596 36664 ft 564 kts 64°
2026-05-08 13:49 47.78866 -57.55668 36655 ft 563 kts 64°
2026-05-08 13:49 47.82951 -57.45755 36665 ft 562 kts 64°
2026-05-08 13:50 47.87030 -57.35817 36661 ft 563 kts 64°
2026-05-08 13:50 47.91106 -57.25853 36646 ft 563 kts 64°
2026-05-08 13:51 47.95168 -57.15886 36659 ft 562 kts 64°
2026-05-08 13:51 47.99219 -57.05911 36650 ft 562 kts 64°
2026-05-08 13:52 48.03260 -56.95920 36644 ft 562 kts 64°
2026-05-08 13:52 48.07270 -56.85972 36625 ft 562 kts 64°
2026-05-08 13:53 48.11286 -56.75970 36612 ft 560 kts 65°
2026-05-08 13:53 48.15288 -56.65965 36605 ft 560 kts 65°
2026-05-08 13:54 48.19281 -56.55946 36892 ft 560 kts 65°
2026-05-08 13:54 48.21278 -56.50924 37222 ft 559 kts 65°
2026-05-08 13:54 48.23263 -56.45921 37458 ft 558 kts 65°
2026-05-08 13:55 48.25247 -56.40907 37686 ft 559 kts 65°
2026-05-08 13:55 48.27231 -56.35885 37928 ft 560 kts 65°
2026-05-08 13:55 48.31197 -56.25826 38407 ft 559 kts 65°
2026-05-08 13:56 48.33177 -56.20786 38555 ft 561 kts 65°
2026-05-08 13:56 48.37133 -56.10691 38605 ft 559 kts 65°
2026-05-08 13:57 48.41059 -56.00637 38606 ft 556 kts 65°
2026-05-08 13:57 48.44959 -55.90604 38602 ft 555 kts 65°
2026-05-08 13:58 48.48857 -55.80548 38610 ft 557 kts 65°
2026-05-08 13:58 48.52755 -55.70443 38612 ft 558 kts 65°
2026-05-08 13:59 48.56625 -55.60385 38614 ft 558 kts 65°
2026-05-08 13:59 48.60506 -55.50251 38610 ft 557 kts 65°
2026-05-08 14:00 48.64379 -55.40100 38627 ft 558 kts 65°
2026-05-08 14:00 48.67625 -55.31566 38625 ft 558 kts 65°
2026-05-08 14:01 48.71480 -55.21393 38629 ft 556 kts 65°
2026-05-08 14:01 48.75940 -55.09572 38633 ft 555 kts 65°
2026-05-08 14:02 48.79759 -54.99408 38639 ft 554 kts 65°
2026-05-08 14:02 48.82951 -54.90882 38646 ft 555 kts 65°
2026-05-08 14:03 48.86729 -54.80758 38654 ft 555 kts 65°
2026-05-08 14:03 48.90551 -54.70472 38662 ft 555 kts 65°
2026-05-08 14:04 48.94308 -54.60324 38662 ft 554 kts 65°
2026-05-08 14:04 48.98080 -54.50095 38659 ft 554 kts 66°
2026-05-08 14:05 49.01840 -54.39859 38654 ft 553 kts 65°
2026-05-08 14:05 49.05590 -54.29612 38669 ft 554 kts 66°
2026-05-08 14:06 49.09332 -54.19344 38683 ft 552 kts 65°
2026-05-08 14:06 49.13042 -54.09125 38678 ft 550 kts 65°
2026-05-08 14:07 49.16737 -53.98904 38681 ft 549 kts 65°
2026-05-08 14:07 49.20419 -53.88683 38682 ft 549 kts 65°
2026-05-08 14:08 49.24089 -53.78452 38687 ft 548 kts 65°
2026-05-08 14:08 49.27749 -53.68211 38685 ft 548 kts 66°
2026-05-08 14:09 49.31398 -53.57957 38692 ft 549 kts 65°
2026-05-08 14:09 49.35042 -53.47680 38704 ft 550 kts 65°
2026-05-08 14:10 49.38686 -53.37360 38711 ft 551 kts 66°
2026-05-08 14:10 49.42328 -53.27004 38709 ft 551 kts 65°
2026-05-08 14:11 49.45944 -53.16687 38707 ft 546 kts 65°
2026-05-08 14:11 49.49538 -53.06378 38706 ft 546 kts 66°
2026-05-08 14:12 49.53065 -52.96236 38707 ft 538 kts 66°
2026-05-08 14:12 49.56578 -52.86075 38717 ft 538 kts 65°
2026-05-08 14:13 49.60094 -52.75885 38725 ft 537 kts 65°
2026-05-08 14:13 49.63586 -52.65711 38726 ft 537 kts 66°
2026-05-08 14:14 49.67078 -52.55502 38733 ft 538 kts 66°
2026-05-08 14:14 49.70567 -52.45259 38733 ft 540 kts 66°
2026-05-08 14:15 49.74056 -52.34974 38743 ft 541 kts 66°
2026-05-08 14:15 49.77538 -52.24672 38755 ft 539 kts 66°
2026-05-08 14:16 49.80996 -52.14395 38748 ft 538 kts 66°
2026-05-08 14:16 49.84440 -52.04119 38747 ft 537 kts 66°
2026-05-08 14:17 49.87881 -51.93810 38750 ft 538 kts 66°
2026-05-08 14:17 49.91308 -51.83499 38737 ft 538 kts 66°
2026-05-08 14:18 49.94724 -51.73184 38760 ft 537 kts 66°
2026-05-08 14:18 49.98129 -51.62856 38764 ft 538 kts 65°
2026-05-08 14:19 50.01535 -51.52485 38769 ft 539 kts 66°
2026-05-08 14:19 50.04933 -51.42093 38765 ft 538 kts 66°
2026-05-08 14:20 50.08294 -51.31772 38769 ft 537 kts 65°
2026-05-08 14:20 50.11657 -51.21400 38786 ft 537 kts 65°
2026-05-08 14:21 50.15015 -51.11004 38795 ft 538 kts 66°
2026-05-08 14:21 50.18394 -51.00500 38801 ft 538 kts 66°
2026-05-08 14:22 50.21721 -50.90111 38786 ft 539 kts 65°
2026-05-08 14:22 50.25067 -50.79622 38808 ft 540 kts 66°
2026-05-08 14:23 50.28400 -50.69125 38813 ft 538 kts 66°
2026-05-08 14:23 50.31716 -50.58639 38795 ft 536 kts 66°
2026-05-08 14:24 50.35004 -50.48199 38813 ft 534 kts 65°
2026-05-08 14:24 50.38270 -50.37782 38815 ft 532 kts 66°
2026-05-08 14:25 50.41528 -50.27348 38826 ft 534 kts 66°
2026-05-08 14:25 50.44788 -50.16865 38840 ft 535 kts 66°
2026-05-08 14:26 50.48045 -50.06343 38839 ft 536 kts 65°
2026-05-08 14:26 50.51072 -49.95717 38865 ft 530 kts 72°
2026-05-08 14:27 50.53803 -49.84908 38866 ft 533 kts 69°
2026-05-08 14:27 50.56534 -49.74069 38868 ft 533 kts 71°
2026-05-08 14:28 50.59221 -49.63206 38866 ft 532 kts 70°
2026-05-08 14:28 50.61918 -49.52424 38861 ft 528 kts 71°
2026-05-08 14:29 50.64568 -49.41630 38863 ft 528 kts 70°
2026-05-08 14:29 50.67215 -49.30911 38880 ft 523 kts 70°
2026-05-08 14:30 50.69829 -49.20187 38888 ft 524 kts 70°
2026-05-08 14:30 50.72445 -49.09466 38891 ft 524 kts 70°
2026-05-08 14:31 50.75043 -48.98724 38884 ft 523 kts 70°
2026-05-08 14:31 50.77633 -48.87986 38889 ft 523 kts 70°
2026-05-08 14:32 50.81496 -48.71856 38897 ft 522 kts 70°
2026-05-08 14:32 50.84051 -48.61131 38896 ft 521 kts 70°
2026-05-08 14:33 50.86595 -48.50386 38923 ft 522 kts 70°
2026-05-08 14:33 50.89120 -48.39681 38931 ft 523 kts 70°
2026-05-08 14:34 50.91655 -48.28869 38934 ft 524 kts 70°
2026-05-08 14:34 50.94182 -48.18043 38946 ft 524 kts 70°
2026-05-08 14:35 50.96704 -48.07181 38955 ft 524 kts 71°
2026-05-08 14:35 50.99207 -47.96348 38951 ft 522 kts 71°
2026-05-08 14:36 51.01690 -47.85544 38953 ft 520 kts 71°
2026-05-08 14:36 51.04168 -47.74708 38956 ft 523 kts 70°
2026-05-08 14:37 51.06644 -47.63827 38976 ft 524 kts 71°
2026-05-08 14:37 51.09114 -47.52915 38980 ft 524 kts 71°
2026-05-08 14:38 51.11575 -47.41987 38987 ft 524 kts 71°
2026-05-08 14:38 51.14008 -47.31120 38984 ft 526 kts 70°
2026-05-08 14:39 51.16457 -47.20133 38993 ft 524 kts 70°
2026-05-08 14:39 51.18872 -47.09239 38998 ft 520 kts 70°
2026-05-08 14:40 51.21273 -46.98349 38997 ft 521 kts 70°
2026-05-08 14:40 51.23666 -46.87438 39007 ft 521 kts 70°
2026-05-08 14:41 51.26047 -46.76531 39018 ft 520 kts 70°
2026-05-08 14:41 51.28414 -46.65623 39024 ft 519 kts 70°
2026-05-08 14:42 51.30768 -46.54721 39028 ft 519 kts 70°
2026-05-08 14:42 51.33115 -46.43789 39039 ft 521 kts 70°
2026-05-08 14:43 51.35462 -46.32804 39063 ft 523 kts 70°
2026-05-08 14:43 51.37805 -46.21773 39065 ft 523 kts 70°
2026-05-08 14:44 51.40137 -46.10734 39056 ft 523 kts 70°
2026-05-08 14:44 51.42440 -45.99771 39061 ft 517 kts 70°
2026-05-08 14:45 51.44723 -45.88848 39083 ft 517 kts 69°
2026-05-08 14:45 51.47001 -45.77891 39083 ft 518 kts 69°
2026-05-08 14:46 51.49272 -45.66904 39094 ft 519 kts 70°
2026-05-08 14:46 51.51519 -45.55972 39104 ft 520 kts 70°
2026-05-08 14:47 51.53775 -45.44938 39104 ft 520 kts 69°
2026-05-08 14:47 51.56010 -45.33947 39118 ft 517 kts 69°
2026-05-08 14:48 51.58230 -45.22966 39117 ft 516 kts 70°
2026-05-08 14:48 51.60078 -45.13775 39124 ft 516 kts 70°
2026-05-08 14:49 51.62262 -45.02859 39123 ft 516 kts 70°
2026-05-08 14:49 51.64451 -44.91890 39140 ft 512 kts 69°
2026-05-08 14:50 51.66600 -44.80980 39152 ft 512 kts 69°
2026-05-08 14:50 51.68759 -44.70031 39166 ft 514 kts 69°
2026-05-08 14:51 51.70911 -44.59023 39171 ft 515 kts 69°
2026-05-08 14:51 51.73049 -44.48022 39166 ft 513 kts 69°
2026-05-08 14:52 51.76220 -44.31609 39167 ft 510 kts 69°
2026-05-08 14:53 51.78318 -44.20666 39178 ft 510 kts 69°
2026-05-08 14:53 51.80406 -44.09714 39176 ft 510 kts 69°
2026-05-08 14:54 51.82483 -43.98749 39194 ft 510 kts 69°
2026-05-08 14:54 51.84547 -43.87798 39192 ft 509 kts 69°
2026-05-08 14:55 51.86596 -43.76859 39202 ft 507 kts 68°
2026-05-08 14:55 51.88625 -43.65963 39203 ft 506 kts 68°
2026-05-08 14:56 51.90647 -43.55046 39219 ft 507 kts 69°
2026-05-08 14:56 51.92664 -43.44082 39230 ft 508 kts 69°
2026-05-08 14:57 51.94675 -43.33092 39243 ft 509 kts 69°
2026-05-08 14:57 51.96661 -43.22166 39228 ft 508 kts 69°
2026-05-08 14:58 51.98645 -43.11188 39224 ft 506 kts 69°
2026-05-08 14:58 52.00614 -43.00230 39251 ft 505 kts 69°
2026-05-08 14:59 52.02569 -42.89289 39248 ft 505 kts 69°
2026-05-08 14:59 52.05489 -42.72812 39257 ft 507 kts 69°
2026-05-08 15:00 52.07429 -42.61781 39275 ft 508 kts 69°
2026-05-08 15:00 52.09340 -42.50827 39269 ft 499 kts 68°
2026-05-08 15:01 52.11225 -42.40003 39271 ft 498 kts 68°
2026-05-08 15:01 52.13103 -42.29120 39279 ft 500 kts 69°
2026-05-08 15:02 52.14978 -42.18193 39283 ft 502 kts 69°
2026-05-08 15:02 52.16843 -42.07253 39289 ft 501 kts 69°
2026-05-08 15:03 52.18688 -41.96353 39282 ft 494 kts 69°
2026-05-08 15:03 52.20504 -41.85590 39280 ft 493 kts 69°
2026-05-08 15:04 52.22302 -41.74845 39294 ft 496 kts 69°
2026-05-08 15:04 52.24109 -41.63969 39306 ft 497 kts 69°
2026-05-08 15:05 52.25919 -41.53023 39318 ft 496 kts 69°
2026-05-08 15:05 52.27677 -41.42367 39304 ft 485 kts 68°
2026-05-08 15:06 52.29394 -41.31776 39301 ft 481 kts 69°
2026-05-08 15:06 52.31117 -41.21181 39316 ft 484 kts 69°
2026-05-08 15:07 52.32834 -41.10514 39317 ft 486 kts 69°
2026-05-08 15:07 52.34540 -40.99845 39318 ft 484 kts 68°
2026-05-08 15:08 52.35948 -40.91016 39315 ft 482 kts 69°
2026-05-08 15:08 52.37907 -40.78621 39319 ft 481 kts 69°
2026-05-08 15:09 52.39575 -40.68004 39332 ft 482 kts 69°
2026-05-08 15:09 52.41233 -40.57378 39336 ft 482 kts 69°
2026-05-08 15:10 52.42883 -40.46736 39343 ft 482 kts 68°
2026-05-08 15:10 52.44519 -40.36112 39347 ft 480 kts 68°
2026-05-08 15:11 52.46145 -40.25494 39350 ft 480 kts 69°
2026-05-08 15:11 52.47759 -40.14868 39360 ft 479 kts 68°
2026-05-08 15:12 52.49356 -40.04287 39361 ft 477 kts 68°
2026-05-08 15:12 52.50921 -39.93769 39364 ft 480 kts 69°
2026-05-08 15:13 52.52434 -39.83081 39368 ft 480 kts 69°
2026-05-08 15:13 52.53976 -39.72401 39375 ft 481 kts 69°
2026-05-08 15:14 52.55490 -39.61689 39380 ft 482 kts 69°
2026-05-08 15:14 52.57004 -39.50976 39383 ft 481 kts 69°
2026-05-08 15:15 52.58504 -39.40251 39382 ft 481 kts 68°
2026-05-08 15:15 52.59990 -39.29557 39386 ft 479 kts 68°
2026-05-08 15:16 52.61466 -39.18880 39390 ft 479 kts 69°
2026-05-08 15:16 52.62934 -39.08159 39399 ft 481 kts 69°
2026-05-08 15:17 52.64396 -38.97416 39401 ft 481 kts 69°
2026-05-08 15:17 52.65831 -38.86755 39397 ft 473 kts 68°
2026-05-08 15:18 52.67260 -38.76158 39399 ft 475 kts 68°
2026-05-08 15:18 52.68673 -38.65512 39412 ft 477 kts 69°
2026-05-08 15:19 52.70089 -38.54805 39417 ft 478 kts 69°
2026-05-08 15:19 52.71489 -38.44112 39422 ft 477 kts 69°
2026-05-08 15:20 52.72879 -38.33437 39419 ft 475 kts 69°
2026-05-08 15:20 52.74255 -38.22782 39420 ft 474 kts 69°
2026-05-08 15:21 52.75620 -38.12138 39419 ft 475 kts 69°
2026-05-08 15:21 52.76981 -38.01447 39422 ft 477 kts 69°
2026-05-08 15:22 52.78335 -37.90713 39455 ft 478 kts 69°
2026-05-08 15:22 52.79671 -37.80026 39428 ft 473 kts 69°
2026-05-08 15:23 52.80996 -37.69392 39438 ft 472 kts 68°
2026-05-08 15:23 52.82303 -37.58786 39437 ft 471 kts 68°
2026-05-08 15:24 52.83597 -37.48221 39443 ft 472 kts 69°
2026-05-08 15:24 52.84889 -37.37568 39472 ft 473 kts 69°
2026-05-08 15:25 52.86176 -37.26881 39451 ft 473 kts 68°
2026-05-08 15:25 52.87458 -37.16134 39449 ft 473 kts 68°
2026-05-08 15:26 52.88715 -37.05535 39451 ft 472 kts 69°
2026-05-08 15:26 52.89966 -36.94884 39448 ft 471 kts 69°
2026-05-08 15:27 52.91212 -36.84208 39479 ft 473 kts 69°
2026-05-08 15:27 52.92451 -36.73479 39455 ft 475 kts 69°
2026-05-08 15:28 52.93683 -36.62728 39465 ft 475 kts 69°
2026-05-08 15:28 52.94907 -36.51967 39471 ft 475 kts 69°
2026-05-08 15:29 52.96120 -36.41199 39470 ft 475 kts 69°
2026-05-08 15:29 52.97323 -36.30434 39497 ft 475 kts 69°
2026-05-08 15:30 52.98516 -36.19659 39477 ft 474 kts 69°
2026-05-08 15:30 52.99695 -36.08913 39473 ft 473 kts 69°
2026-05-08 15:31 53.00864 -35.98181 39480 ft 472 kts 69°
2026-05-08 15:31 53.02024 -35.87431 39476 ft 474 kts 69°
2026-05-08 15:32 53.03178 -35.76629 39511 ft 475 kts 70°
2026-05-08 15:32 53.04329 -35.65779 39485 ft 477 kts 70°
2026-05-08 15:33 53.05468 -35.54913 39492 ft 477 kts 70°
2026-05-08 15:33 53.06600 -35.44042 39493 ft 477 kts 70°
2026-05-08 15:34 53.07719 -35.33177 39492 ft 477 kts 70°
2026-05-08 15:34 53.08831 -35.22295 39516 ft 477 kts 70°
2026-05-08 15:35 53.09754 -35.13190 39490 ft 482 kts 71°
2026-05-08 15:35 53.11032 -35.00392 39495 ft 482 kts 71°
2026-05-08 15:36 53.11948 -34.91185 39494 ft 481 kts 71°
2026-05-08 15:36 53.13028 -34.80197 39492 ft 480 kts 71°
2026-05-08 15:37 53.14097 -34.69227 39491 ft 480 kts 71°
2026-05-08 15:37 53.15165 -34.58187 39502 ft 485 kts 71°
2026-05-08 15:38 53.16220 -34.47076 39502 ft 485 kts 71°
2026-05-08 15:38 53.17264 -34.36057 39498 ft 484 kts 71°
2026-05-08 15:39 53.18298 -34.24991 39499 ft 483 kts 72°
2026-05-08 15:39 53.19322 -34.13928 39528 ft 483 kts 72°
2026-05-08 15:40 53.20347 -34.02768 39503 ft 489 kts 72°
2026-05-08 15:40 53.21357 -33.91556 39505 ft 488 kts 73°
2026-05-08 15:41 53.22361 -33.80388 39507 ft 486 kts 73°
2026-05-08 15:41 53.23351 -33.69213 39507 ft 487 kts 73°
2026-05-08 15:42 53.24333 -33.58007 39531 ft 489 kts 73°
2026-05-08 15:42 53.25304 -33.46789 39516 ft 487 kts 73°
2026-05-08 15:43 53.26265 -33.35597 39519 ft 487 kts 73°
2026-05-08 15:43 53.27212 -33.24410 39515 ft 486 kts 74°
2026-05-08 15:44 53.28150 -33.13217 39517 ft 486 kts 74°
2026-05-08 15:44 53.29077 -33.02015 39519 ft 487 kts 74°
2026-05-08 15:45 53.29994 -32.90804 39514 ft 487 kts 74°
2026-05-08 15:45 53.30900 -32.79590 39519 ft 487 kts 74°
2026-05-08 15:46 53.31797 -32.68359 39521 ft 486 kts 75°
2026-05-08 15:46 53.32672 -32.57264 39517 ft 484 kts 75°
2026-05-08 15:47 53.33545 -32.46090 39515 ft 485 kts 75°
2026-05-08 15:47 53.34401 -32.34920 39514 ft 483 kts 75°
2026-05-08 15:48 53.35671 -32.18197 39506 ft 484 kts 75°
2026-05-08 15:49 53.36505 -32.07002 39512 ft 485 kts 75°
2026-05-08 15:49 53.37332 -31.95765 39515 ft 487 kts 76°
2026-05-08 15:50 53.38148 -31.84512 39512 ft 485 kts 76°
2026-05-08 15:50 53.38952 -31.73300 39508 ft 484 kts 76°
2026-05-08 15:51 53.39743 -31.62114 39505 ft 483 kts 76°
2026-05-08 15:51 53.40523 -31.50929 39501 ft 484 kts 76°
2026-05-08 15:52 53.41293 -31.39730 39512 ft 483 kts 76°
2026-05-08 15:52 53.42049 -31.28568 39513 ft 480 kts 77°
2026-05-08 15:53 53.42796 -31.17431 39513 ft 481 kts 77°
2026-05-08 15:53 53.43530 -31.06269 39515 ft 482 kts 77°
2026-05-08 15:54 53.44257 -30.95090 39515 ft 483 kts 77°
2026-05-08 15:54 53.44969 -30.83963 39512 ft 483 kts 77°
2026-05-08 15:55 53.45675 -30.72749 39508 ft 482 kts 77°
2026-05-08 15:55 53.46712 -30.55999 39499 ft 480 kts 77°
2026-05-08 15:56 53.47387 -30.44852 39498 ft 481 kts 77°
2026-05-08 15:56 53.48056 -30.33674 39503 ft 482 kts 77°
2026-05-08 15:57 53.48714 -30.22467 39506 ft 482 kts 78°
2026-05-08 15:57 53.49360 -30.11276 39495 ft 481 kts 78°
2026-05-08 15:58 53.49994 -30.00126 39497 ft 479 kts 78°
2026-05-08 15:58 53.50452 -29.88927 39498 ft 482 kts 79°
2026-05-08 15:59 53.50918 -29.77695 39494 ft 482 kts 79°
2026-05-08 15:59 53.51355 -29.66443 39499 ft 483 kts 79°
2026-05-08 16:00 53.51791 -29.55213 39495 ft 481 kts 79°
2026-05-08 16:00 53.52212 -29.43996 39493 ft 481 kts 80°
2026-05-08 16:01 53.52620 -29.32867 39493 ft 480 kts 80°
2026-05-08 16:01 53.53021 -29.21654 39493 ft 481 kts 80°
2026-05-08 16:02 53.53411 -29.10430 39484 ft 482 kts 80°
2026-05-08 16:02 53.53791 -28.99197 39491 ft 481 kts 80°
2026-05-08 16:03 53.54160 -28.87958 39490 ft 482 kts 80°
2026-05-08 16:03 53.54520 -28.76696 39492 ft 482 kts 80°
2026-05-08 16:04 53.54869 -28.65427 39483 ft 483 kts 81°
2026-05-08 16:04 53.55209 -28.54146 39475 ft 484 kts 81°
2026-05-08 16:05 53.55537 -28.42843 39478 ft 484 kts 81°
2026-05-08 16:05 53.55856 -28.31534 39478 ft 484 kts 81°
2026-05-08 16:06 53.56163 -28.20224 39471 ft 484 kts 81°
2026-05-08 16:06 53.56460 -28.08913 39470 ft 484 kts 81°
2026-05-08 16:07 53.56747 -27.97603 39470 ft 484 kts 81°
2026-05-08 16:07 53.57022 -27.86296 39467 ft 483 kts 81°
2026-05-08 16:08 53.57284 -27.75087 39457 ft 482 kts 81°
2026-05-08 16:08 53.57538 -27.63826 39464 ft 482 kts 81°
2026-05-08 16:09 53.57743 -27.54371 39463 ft 483 kts 81°
2026-05-08 16:09 53.58014 -27.41234 39463 ft 484 kts 81°
2026-05-08 16:10 53.58237 -27.29903 39461 ft 485 kts 82°
2026-05-08 16:10 53.58449 -27.18544 39454 ft 486 kts 82°
2026-05-08 16:11 53.58651 -27.07173 39453 ft 485 kts 82°
2026-05-08 16:11 53.58841 -26.95837 39450 ft 484 kts 82°
2026-05-08 16:12 53.59021 -26.84528 39445 ft 483 kts 82°
2026-05-08 16:12 53.59188 -26.73253 39444 ft 482 kts 82°
2026-05-08 16:13 53.59348 -26.61967 39435 ft 483 kts 82°
2026-05-08 16:13 53.59494 -26.50647 39438 ft 484 kts 82°
2026-05-08 16:14 53.59630 -26.39333 39433 ft 481 kts 82°
2026-05-08 16:14 53.59757 -26.28082 39452 ft 480 kts 83°
2026-05-08 16:15 53.59871 -26.16858 39426 ft 479 kts 83°
2026-05-08 16:15 53.59976 -26.05638 39428 ft 480 kts 83°
2026-05-08 16:16 53.60069 -25.94395 39428 ft 481 kts 83°
2026-05-08 16:16 53.60152 -25.83122 39431 ft 482 kts 83°
2026-05-08 16:17 53.60214 -25.73738 39425 ft 483 kts 83°
2026-05-08 16:17 53.60286 -25.60623 39417 ft 480 kts 84°
2026-05-08 16:18 53.60339 -25.49404 39406 ft 479 kts 84°
2026-05-08 16:18 53.60380 -25.38192 39407 ft 479 kts 84°
2026-05-08 16:19 53.60410 -25.26960 39414 ft 480 kts 84°
2026-05-08 16:19 53.60431 -25.15692 39399 ft 483 kts 84°
2026-05-08 16:20 53.60440 -25.04352 39412 ft 486 kts 85°
2026-05-08 16:20 53.60438 -24.92989 39409 ft 485 kts 85°
2026-05-08 16:21 53.60427 -24.81646 39408 ft 484 kts 85°
2026-05-08 16:21 53.60403 -24.70309 39401 ft 484 kts 85°
2026-05-08 16:22 53.60377 -24.60890 39399 ft 484 kts 85°
2026-05-08 16:22 53.60327 -24.47692 39398 ft 487 kts 85°
2026-05-08 16:23 53.60270 -24.36270 39398 ft 488 kts 85°
2026-05-08 16:23 53.60205 -24.24857 39395 ft 487 kts 85°
2026-05-08 16:24 53.60128 -24.13450 39392 ft 487 kts 86°
2026-05-08 16:24 53.60040 -24.02041 39382 ft 487 kts 86°
2026-05-08 16:25 53.59942 -23.90607 39382 ft 489 kts 86°
2026-05-08 16:25 53.59831 -23.79150 39382 ft 489 kts 86°
2026-05-08 16:26 53.59732 -23.69634 39381 ft 489 kts 86°
2026-05-08 16:26 53.59602 -23.58173 39382 ft 489 kts 86°
2026-05-08 16:27 53.59461 -23.46724 39381 ft 489 kts 86°
2026-05-08 16:27 53.59310 -23.35257 39378 ft 491 kts 87°
2026-05-08 16:28 53.59145 -23.23772 39374 ft 491 kts 87°
2026-05-08 16:28 53.58972 -23.12284 39373 ft 491 kts 88°
2026-05-08 16:29 53.58786 -23.00796 39371 ft 491 kts 88°
2026-05-08 16:29 53.58590 -22.89305 39369 ft 491 kts 88°
2026-05-08 16:30 53.58383 -22.77812 39360 ft 492 kts 88°
2026-05-08 16:30 53.58163 -22.66285 39360 ft 493 kts 88°
2026-05-08 16:31 53.57932 -22.54747 39358 ft 493 kts 88°
2026-05-08 16:31 53.57691 -22.43250 39354 ft 491 kts 89°
2026-05-08 16:32 53.57440 -22.31786 39344 ft 490 kts 89°
2026-05-08 16:32 53.57179 -22.20321 39352 ft 492 kts 89°
2026-05-08 16:33 53.56904 -22.08794 39351 ft 493 kts 89°
2026-05-08 16:33 53.56618 -21.97256 39350 ft 494 kts 89°
2026-05-08 16:34 53.56320 -21.85708 39348 ft 494 kts 89°
2026-05-08 16:34 53.56012 -21.74168 39337 ft 494 kts 89°
2026-05-08 16:35 53.55693 -21.62638 39339 ft 494 kts 89°
2026-05-08 16:35 53.55365 -21.51184 39339 ft 493 kts 90°
2026-05-08 16:36 53.55023 -21.39657 39339 ft 493 kts 90°
2026-05-08 16:36 53.54671 -21.28138 39330 ft 493 kts 90°
2026-05-08 16:37 53.54308 -21.16620 39344 ft 493 kts 90°
2026-05-08 16:37 53.53933 -21.05108 39315 ft 492 kts 90°
2026-05-08 16:38 53.53549 -20.93634 39310 ft 491 kts 90°
2026-05-08 16:38 53.53154 -20.82153 39306 ft 493 kts 90°
2026-05-08 16:39 53.52747 -20.70642 39306 ft 494 kts 91°
2026-05-08 16:39 53.52327 -20.59120 39309 ft 494 kts 91°
2026-05-08 16:40 53.51896 -20.47556 39316 ft 497 kts 91°
2026-05-08 16:40 53.51452 -20.35991 39315 ft 495 kts 91°
2026-05-08 16:41 53.51002 -20.24439 39309 ft 496 kts 91°
2026-05-08 16:42 53.50295 -20.07079 39310 ft 497 kts 91°
2026-05-08 16:42 53.49248 -19.95637 39323 ft 501 kts 104°
2026-05-08 16:43 53.47253 -19.84377 39302 ft 504 kts 104°
2026-05-08 16:43 53.45278 -19.73142 39299 ft 501 kts 104°
2026-05-08 16:44 53.43273 -19.61921 39294 ft 502 kts 104°
2026-05-08 16:44 53.41273 -19.50715 39295 ft 503 kts 104°
2026-05-08 16:45 53.39261 -19.39575 39288 ft 502 kts 104°
2026-05-08 16:45 53.37230 -19.28342 39289 ft 506 kts 105°
2026-05-08 16:46 53.35175 -19.17110 39277 ft 503 kts 105°
2026-05-08 16:46 53.33123 -19.05888 39277 ft 505 kts 106°
2026-05-08 16:47 53.31048 -18.94692 39273 ft 504 kts 105°
2026-05-08 16:47 53.28970 -18.83471 39272 ft 504 kts 105°
2026-05-08 16:48 53.26876 -18.72286 39270 ft 507 kts 107°
2026-05-08 16:48 53.24768 -18.61074 39267 ft 504 kts 107°
2026-05-08 16:49 53.22655 -18.49889 39270 ft 507 kts 107°
2026-05-08 16:49 53.20531 -18.38725 39255 ft 504 kts 107°
2026-05-08 16:50 53.18390 -18.27546 39259 ft 506 kts 108°
2026-05-08 16:50 53.16252 -18.16415 39257 ft 505 kts 107°
2026-05-08 16:51 53.14087 -18.05262 39259 ft 505 kts 108°
2026-05-08 16:51 53.11916 -17.94105 39245 ft 508 kts 108°
2026-05-08 16:52 53.09741 -17.82985 39243 ft 504 kts 108°
2026-05-08 16:52 53.07547 -17.71863 39244 ft 507 kts 109°
2026-05-08 16:53 53.04262 -17.55300 39231 ft 507 kts 109°
2026-05-08 16:53 53.02029 -17.44135 39228 ft 504 kts 109°
2026-05-08 16:54 52.99803 -17.33044 39236 ft 508 kts 109°
2026-05-08 16:54 52.97579 -17.22043 39223 ft 505 kts 110°
2026-05-08 16:55 52.95326 -17.10974 39225 ft 507 kts 109°
2026-05-08 16:55 52.93075 -16.99941 39221 ft 505 kts 110°
2026-05-08 16:56 52.90802 -16.88896 39214 ft 505 kts 110°
2026-05-08 16:56 52.88530 -16.77894 39209 ft 507 kts 111°
2026-05-08 16:57 52.86240 -16.66875 39202 ft 504 kts 111°
2026-05-08 16:57 52.83943 -16.55883 39204 ft 508 kts 110°
2026-05-08 16:58 52.81639 -16.44909 39197 ft 502 kts 111°
2026-05-08 16:58 52.79332 -16.33999 39196 ft 504 kts 111°
2026-05-08 16:59 52.77036 -16.23179 39188 ft 501 kts 111°
2026-05-08 16:59 52.74713 -16.12310 39192 ft 502 kts 111°
2026-05-08 17:00 52.72386 -16.01455 39189 ft 502 kts 112°
2026-05-08 17:00 52.70037 -15.90586 39193 ft 502 kts 111°
2026-05-08 17:01 52.67691 -15.79752 39173 ft 502 kts 112°
2026-05-08 17:01 52.65335 -15.68968 39184 ft 498 kts 111°
2026-05-08 17:02 52.62984 -15.58224 39180 ft 500 kts 112°
2026-05-08 17:02 52.60610 -15.47478 39182 ft 499 kts 112°
2026-05-08 17:03 52.58237 -15.36739 39185 ft 501 kts 112°
2026-05-08 17:03 52.56248 -15.27808 39186 ft 500 kts 112°
2026-05-08 17:04 52.53443 -15.15282 39185 ft 500 kts 112°
2026-05-08 17:04 52.51041 -15.04575 39178 ft 499 kts 112°
2026-05-08 17:05 52.50212 -14.99028 39203 ft 503 kts 101°
2026-05-08 17:05 52.50026 -14.93277 39202 ft 507 kts 90°
2026-05-08 17:05 52.50076 -14.81785 39177 ft 507 kts 92°
2026-05-08 17:06 52.50080 -14.70241 39181 ft 507 kts 91°
2026-05-08 17:06 52.50116 -14.58672 39169 ft 506 kts 92°
2026-05-08 17:07 52.50101 -14.47122 39170 ft 506 kts 92°
2026-05-08 17:07 52.50102 -14.35559 39172 ft 506 kts 92°
2026-05-08 17:08 52.50077 -14.24009 39172 ft 506 kts 92°
2026-05-08 17:08 52.50048 -14.12458 39164 ft 505 kts 92°
2026-05-08 17:09 52.49998 -14.00918 39157 ft 505 kts 94°
2026-05-08 17:09 52.48964 -13.89565 39169 ft 506 kts 100°
2026-05-08 17:10 52.48036 -13.78140 39165 ft 505 kts 101°
2026-05-08 17:10 52.46886 -13.66782 39164 ft 505 kts 101°
2026-05-08 17:11 52.45856 -13.55393 39147 ft 504 kts 101°
2026-05-08 17:11 52.44744 -13.44052 39150 ft 505 kts 101°
2026-05-08 17:12 52.43656 -13.32691 39142 ft 505 kts 101°
2026-05-08 17:12 52.42542 -13.21339 39139 ft 504 kts 102°
2026-05-08 17:13 52.41421 -13.09999 39142 ft 504 kts 101°
2026-05-08 17:13 52.40485 -13.00583 39124 ft 504 kts 102°
2026-05-08 17:14 52.39340 -12.89247 39137 ft 505 kts 102°
2026-05-08 17:14 52.38003 -12.76074 39135 ft 505 kts 102°
2026-05-08 17:15 52.37025 -12.66576 39133 ft 505 kts 102°
2026-05-08 17:15 52.35852 -12.55250 39131 ft 505 kts 102°
2026-05-08 17:16 52.34665 -12.43920 39123 ft 505 kts 102°
2026-05-08 17:16 52.33470 -12.32615 39130 ft 505 kts 102°
2026-05-08 17:17 52.32264 -12.21312 39122 ft 505 kts 102°
2026-05-08 17:17 52.31054 -12.10078 39120 ft 505 kts 103°
2026-05-08 17:18 52.29824 -11.98769 39123 ft 506 kts 103°
2026-05-08 17:18 52.28582 -11.87452 39119 ft 507 kts 103°
2026-05-08 17:19 52.27326 -11.76107 39114 ft 507 kts 103°
2026-05-08 17:19 52.26063 -11.64811 39110 ft 505 kts 103°
2026-05-08 17:20 52.24792 -11.53549 39115 ft 504 kts 103°
2026-05-08 17:20 52.23513 -11.42314 39114 ft 504 kts 103°
2026-05-08 17:21 52.22219 -11.31050 39100 ft 507 kts 103°
2026-05-08 17:21 52.20926 -11.19841 39095 ft 499 kts 104°
2026-05-08 17:22 52.19617 -11.08715 39100 ft 501 kts 104°
2026-05-08 17:22 52.18305 -10.97539 39104 ft 503 kts 104°
2026-05-08 17:23 52.16974 -10.86355 39094 ft 502 kts 104°
2026-05-08 17:23 52.15641 -10.75240 39086 ft 499 kts 105°
2026-05-08 17:24 52.14301 -10.64165 39087 ft 498 kts 105°
2026-05-08 17:24 52.12952 -10.53094 39086 ft 499 kts 105°
2026-05-08 17:25 52.11615 -10.42219 39084 ft 499 kts 105°
2026-05-08 17:25 52.10244 -10.31162 39085 ft 499 kts 105°
2026-05-08 17:26 52.08861 -10.20093 39086 ft 500 kts 105°
2026-05-08 17:26 52.07480 -10.09123 39083 ft 497 kts 105°
2026-05-08 17:27 52.06086 -9.98146 39085 ft 496 kts 105°
2026-05-08 17:27 52.04683 -9.87185 39076 ft 496 kts 105°
2026-05-08 17:28 52.03267 -9.76192 39073 ft 499 kts 105°
2026-05-08 17:28 52.01828 -9.65140 39077 ft 500 kts 105°
2026-05-08 17:29 52.00384 -9.54106 39078 ft 499 kts 105°
2026-05-08 17:29 51.98931 -9.43111 39078 ft 499 kts 105°
2026-05-08 17:30 51.97467 -9.32107 39053 ft 499 kts 105°
2026-05-08 17:30 51.95986 -9.21066 39068 ft 503 kts 105°
2026-05-08 17:31 51.94491 -9.09992 39065 ft 503 kts 105°
2026-05-08 17:31 51.92996 -8.99011 39063 ft 501 kts 106°
2026-05-08 17:32 51.91488 -8.88019 39055 ft 499 kts 106°
2026-05-08 17:32 51.89974 -8.77062 39057 ft 499 kts 106°
2026-05-08 17:33 51.88448 -8.66100 39048 ft 499 kts 106°
2026-05-08 17:33 51.86911 -8.55138 39046 ft 500 kts 106°
2026-05-08 17:34 51.85363 -8.44175 39053 ft 500 kts 106°
2026-05-08 17:34 51.83800 -8.33190 39076 ft 501 kts 106°
2026-05-08 17:35 51.82228 -8.22221 39065 ft 501 kts 107°
2026-05-08 17:35 51.80643 -8.11241 39065 ft 502 kts 107°
2026-05-08 17:36 51.79048 -8.00264 39066 ft 502 kts 107°
2026-05-08 17:36 51.77445 -7.89314 39068 ft 499 kts 107°
2026-05-08 17:37 51.75844 -7.78455 39064 ft 496 kts 107°
2026-05-08 17:37 51.74237 -7.67637 39063 ft 495 kts 107°
2026-05-08 17:38 51.72622 -7.56831 39063 ft 496 kts 107°
2026-05-08 17:38 51.70995 -7.46018 39064 ft 496 kts 107°
2026-05-08 17:39 51.69356 -7.35202 39065 ft 496 kts 107°
2026-05-08 17:39 51.67708 -7.24404 39054 ft 497 kts 107°
2026-05-08 17:40 51.66043 -7.13566 39061 ft 499 kts 107°
2026-05-08 17:40 51.64380 -7.02804 39061 ft 498 kts 108°
2026-05-08 17:41 51.62697 -6.91990 39060 ft 498 kts 108°
2026-05-08 17:41 51.60492 -6.81553 39058 ft 491 kts 117°
2026-05-08 17:42 51.57983 -6.71294 39063 ft 494 kts 115°
2026-05-08 17:42 51.55368 -6.61079 39068 ft 495 kts 116°
2026-05-08 17:43 51.52763 -6.50841 39064 ft 495 kts 115°
2026-05-08 17:43 51.50158 -6.40617 39069 ft 495 kts 116°
2026-05-08 17:44 51.47527 -6.30420 39065 ft 495 kts 116°
2026-05-08 17:44 51.44902 -6.20210 39056 ft 495 kts 116°
2026-05-08 17:45 51.42249 -6.10005 39056 ft 497 kts 116°
2026-05-08 17:45 51.39605 -5.99825 39052 ft 493 kts 116°
2026-05-08 17:46 51.36960 -5.89728 39045 ft 491 kts 116°
2026-05-08 17:46 51.34313 -5.79647 39047 ft 491 kts 116°
2026-05-08 17:47 51.31656 -5.69579 39051 ft 493 kts 116°
2026-05-08 17:47 51.29429 -5.61177 39051 ft 495 kts 116°
2026-05-08 17:48 51.26281 -5.49340 39052 ft 495 kts 116°
2026-05-08 17:48 51.23576 -5.39227 39052 ft 495 kts 116°
2026-05-08 17:49 51.20865 -5.29131 39044 ft 494 kts 116°
2026-05-08 17:49 51.18161 -5.19106 39043 ft 491 kts 117°
2026-05-08 17:50 51.15453 -5.09111 39045 ft 491 kts 117°
2026-05-08 17:50 51.12736 -4.99127 39044 ft 492 kts 117°
2026-05-08 17:51 51.10009 -4.89144 39048 ft 492 kts 117°
2026-05-08 17:51 51.07273 -4.79175 39049 ft 492 kts 117°
2026-05-08 17:52 51.04521 -4.69192 39044 ft 493 kts 117°
2026-05-08 17:53 51.00383 -4.54254 39044 ft 494 kts 117°
2026-05-08 17:53 50.97622 -4.44343 39039 ft 493 kts 117°
2026-05-08 17:54 50.94842 -4.34405 39038 ft 493 kts 117°
2026-05-08 17:54 50.92055 -4.24484 39039 ft 492 kts 117°
2026-05-08 17:55 50.89263 -4.14588 39041 ft 495 kts 117°
2026-05-08 17:55 50.86444 -4.04635 39045 ft 495 kts 117°
2026-05-08 17:56 50.83623 -3.94720 39043 ft 495 kts 117°
2026-05-08 17:56 50.81208 -3.84531 39058 ft 497 kts 109°
2026-05-08 17:57 50.78959 -3.74259 39042 ft 493 kts 112°
2026-05-08 17:57 50.76820 -3.63930 39050 ft 497 kts 110°
2026-05-08 17:58 50.75708 -3.58524 39047 ft 497 kts 111°
2026-05-08 17:58 50.73468 -3.48209 39045 ft 497 kts 111°
2026-05-08 17:59 50.71296 -3.37853 39044 ft 497 kts 111°
2026-05-08 17:59 50.69076 -3.27564 38663 ft 493 kts 111°
2026-05-08 17:59 50.67976 -3.22439 37864 ft 494 kts 111°
2026-05-08 18:00 50.67252 -3.19047 37368 ft 493 kts 111°
2026-05-08 18:00 50.65047 -3.08843 36009 ft 490 kts 111°
2026-05-08 18:00 50.63975 -3.03745 35316 ft 491 kts 108°
2026-05-08 18:01 50.63452 -2.98402 34622 ft 498 kts 95°
2026-05-08 18:01 50.63589 -2.92920 33872 ft 506 kts 83°
2026-05-08 18:01 50.64240 -2.87450 33003 ft 509 kts 80°
2026-05-08 18:01 50.64862 -2.81948 32135 ft 510 kts 82°
2026-05-08 18:02 50.65436 -2.76438 31261 ft 511 kts 81°
2026-05-08 18:02 50.66036 -2.70918 30364 ft 511 kts 81°
2026-05-08 18:02 50.66671 -2.65396 29334 ft 511 kts 80°
2026-05-08 18:02 50.67290 -2.59904 28433 ft 507 kts 81°
2026-05-08 18:03 50.67875 -2.54470 27746 ft 498 kts 82°
2026-05-08 18:03 50.68098 -2.49128 27300 ft 482 kts 93°
2026-05-08 18:03 50.67868 -2.43912 27088 ft 477 kts 96°
2026-05-08 18:03 50.67651 -2.38655 27067 ft 484 kts 95°
2026-05-08 18:04 50.67447 -2.33352 27150 ft 485 kts 95°
2026-05-08 18:04 50.67225 -2.28028 26945 ft 488 kts 95°
2026-05-08 18:04 50.66985 -2.22723 26689 ft 482 kts 95°
2026-05-08 18:04 50.66747 -2.17475 26439 ft 480 kts 95°
2026-05-08 18:05 50.66521 -2.12236 26187 ft 478 kts 95°
2026-05-08 18:05 50.66294 -2.07036 25912 ft 475 kts 95°
2026-05-08 18:05 50.66084 -2.01824 25484 ft 474 kts 93°
2026-05-08 18:05 50.66214 -1.96638 25046 ft 473 kts 89°
2026-05-08 18:06 50.66274 -1.91473 24573 ft 470 kts 91°
2026-05-08 18:06 50.66273 -1.86355 24127 ft 466 kts 91°
2026-05-08 18:06 50.66317 -1.81272 23649 ft 462 kts 90°
2026-05-08 18:06 50.66406 -1.76237 23113 ft 458 kts 90°
2026-05-08 18:07 50.66473 -1.71249 22607 ft 453 kts 90°
2026-05-08 18:07 50.66507 -1.66310 22123 ft 449 kts 91°
2026-05-08 18:07 50.66542 -1.61416 21653 ft 445 kts 90°
2026-05-08 18:07 50.66593 -1.56568 21277 ft 440 kts 90°
2026-05-08 18:08 50.66581 -1.51763 21069 ft 438 kts 93°
2026-05-08 18:08 50.66505 -1.47024 20500 ft 430 kts 93°
2026-05-08 18:08 50.66450 -1.42328 19828 ft 425 kts 92°
2026-05-08 18:08 50.66399 -1.37722 19396 ft 417 kts 92°
2026-05-08 18:09 50.66630 -1.33173 18984 ft 421 kts 79°
2026-05-08 18:09 50.67592 -1.28795 18582 ft 423 kts 68°
2026-05-08 18:09 50.68744 -1.24530 18139 ft 422 kts 69°
2026-05-08 18:09 50.69807 -1.20237 17654 ft 419 kts 70°
2026-05-08 18:10 50.70858 -1.15973 17188 ft 416 kts 70°
2026-05-08 18:10 50.71944 -1.11753 16752 ft 414 kts 69°
2026-05-08 18:10 50.73021 -1.07602 16318 ft 402 kts 69°
2026-05-08 18:10 50.74045 -1.03567 15897 ft 390 kts 69°
2026-05-08 18:11 50.75018 -0.99687 15497 ft 371 kts 70°
2026-05-08 18:11 50.75942 -0.96026 15094 ft 346 kts 69°
2026-05-08 18:11 50.76805 -0.92622 14721 ft 323 kts 69°
2026-05-08 18:11 50.77610 -0.89433 14388 ft 304 kts 69°
2026-05-08 18:12 50.78367 -0.86421 14113 ft 283 kts 69°
2026-05-08 18:12 50.79077 -0.83596 13855 ft 280 kts 69°
2026-05-08 18:12 50.79790 -0.80755 13556 ft 276 kts 69°
2026-05-08 18:12 50.80506 -0.77905 13249 ft 275 kts 69°
2026-05-08 18:13 50.81174 -0.75140 13076 ft 270 kts 73°
2026-05-08 18:13 50.81528 -0.72240 13069 ft 268 kts 82°
2026-05-08 18:13 50.81827 -0.69329 13022 ft 264 kts 82°
2026-05-08 18:13 50.82153 -0.66469 12369 ft 267 kts 81°
2026-05-08 18:14 50.82503 -0.63575 11749 ft 269 kts 81°
2026-05-08 18:14 50.82847 -0.60674 11217 ft 267 kts 81°
2026-05-08 18:14 50.83178 -0.57801 10701 ft 264 kts 82°
2026-05-08 18:14 50.83504 -0.54970 10298 ft 259 kts 82°
2026-05-08 18:15 50.83826 -0.52189 10081 ft 255 kts 82°
2026-05-08 18:15 50.84141 -0.49462 10077 ft 251 kts 82°
2026-05-08 18:15 50.84455 -0.46727 10086 ft 254 kts 82°
2026-05-08 18:15 50.84771 -0.43974 10086 ft 254 kts 82°
2026-05-08 18:16 50.85087 -0.41222 10083 ft 254 kts 82°
2026-05-08 18:16 50.85402 -0.38471 10085 ft 254 kts 82°
2026-05-08 18:16 50.85716 -0.35713 10082 ft 255 kts 82°
2026-05-08 18:16 50.86031 -0.32954 10084 ft 255 kts 82°
2026-05-08 18:17 50.86344 -0.30197 10085 ft 255 kts 82°
2026-05-08 18:17 50.86658 -0.27425 10084 ft 256 kts 82°
2026-05-08 18:17 50.86971 -0.24656 10083 ft 255 kts 82°
2026-05-08 18:17 50.87283 -0.21893 10083 ft 255 kts 82°
2026-05-08 18:18 50.87594 -0.19128 10073 ft 255 kts 82°
2026-05-08 18:18 50.87949 -0.16380 10035 ft 254 kts 76°
2026-05-08 18:18 50.88766 -0.13906 9561 ft 257 kts 53°
2026-05-08 18:18 50.90114 -0.12056 9074 ft 258 kts 31°
2026-05-08 18:19 50.91642 -0.11145 8585 ft 258 kts 11°
2026-05-08 18:19 50.93427 -0.11143 8123 ft 255 kts 349°
2026-05-08 18:19 50.95051 -0.12162 7681 ft 251 kts 327°
2026-05-08 18:19 50.96299 -0.14034 7238 ft 246 kts 304°
2026-05-08 18:20 50.96993 -0.16450 7041 ft 235 kts 284°
2026-05-08 18:20 50.97537 -0.18938 7080 ft 254 kts 293°
2026-05-08 18:20 50.98241 -0.21562 7080 ft 252 kts 285°
2026-05-08 18:20 50.98671 -0.24173 6971 ft 238 kts 281°
2026-05-08 18:21 50.99054 -0.26732 6405 ft 240 kts 281°
2026-05-08 18:21 50.99423 -0.29326 5841 ft 241 kts 281°
2026-05-08 18:21 50.99778 -0.31929 5294 ft 242 kts 281°
2026-05-08 18:21 51.00124 -0.34534 4798 ft 240 kts 281°
2026-05-08 18:22 51.00459 -0.37131 4284 ft 240 kts 281°
2026-05-08 18:22 51.00791 -0.39712 4007 ft 238 kts 281°
2026-05-08 18:22 51.01126 -0.42309 3765 ft 242 kts 281°
2026-05-08 18:22 51.01457 -0.44898 3511 ft 238 kts 281°
2026-05-08 18:23 51.01868 -0.47410 3202 ft 231 kts 294°
2026-05-08 18:23 51.02871 -0.49247 2993 ft 211 kts 324°
2026-05-08 18:23 51.04121 -0.50212 2979 ft 195 kts 340°
2026-05-08 18:23 51.05393 -0.50987 2995 ft 195 kts 341°
2026-05-08 18:24 51.06655 -0.51757 2984 ft 194 kts 342°
2026-05-08 18:24 51.07973 -0.51905 2964 ft 188 kts 11°
2026-05-08 18:24 51.09129 -0.51040 2971 ft 185 kts 40°
2026-05-08 18:24 51.10086 -0.49668 2993 ft 185 kts 44°
2026-05-08 18:25 51.10863 -0.48104 2806 ft 181 kts 68°
2026-05-08 18:25 51.11176 -0.46228 2933 ft 176 kts 78°
2026-05-08 18:25 51.11468 -0.44297 3009 ft 182 kts 77°
2026-05-08 18:25 51.11754 -0.42321 2872 ft 184 kts 79°
2026-05-08 18:26 51.11986 -0.40365 2661 ft 173 kts 81°
2026-05-08 18:26 51.12203 -0.38554 2441 ft 163 kts 81°
2026-05-08 18:26 51.12414 -0.36813 2223 ft 158 kts 81°
2026-05-08 18:26 51.12739 -0.35148 1986 ft 157 kts 74°